{"data":{"norad_id":63383,"epoch":"2026-05-25T04:51:14.440608Z","epoch_age_seconds":47753,"freshness":"FRESH","line1":"1 63383U 25063W   26145.20225047  .00034621  00000+0  11752-2 0  9992","line2":"2 63383  53.1574  67.7330 0001169  98.1353 261.9780 15.30210485 66321","mean_motion":15.30210485,"eccentricity":0.0001169,"inclination_deg":53.1574,"raan_deg":67.733,"arg_perigee_deg":98.1353,"mean_anomaly_deg":261.978,"bstar":0.0011752,"rev_number":6632,"period_min":94.104700896753,"perigee_km":474.38261008079,"apogee_km":475.98491647524,"semimajor_km":6853.320763278,"source":"CELESTRAK","updated_at":"2026-05-25T13:38:19.965841Z"}}